Sisseton, SD

12:49 PM CDT on May 23, 2018 (GMT -0500)
Sisseton

Weather History for K8D3 - August, 2014

Change the Weather History Date:

Friday, August 29, 2014

  Actual Average Record
Temperature  
Mean Temperature 71 °F 66 °F  
Max Temperature 79 °F 78 °F 99 °F (1961)
Min Temperature 62 °F 55 °F 40 °F (1988)
Degree Days  
Heating Degree Days 0 2  
Month to date heating degree days 17 24  
Since 1 June heating degree days 72 99  
Since 1 July heating degree days 37 37  
Cooling Degree Days 6 3  
Month to date cooling degree days 118 150  
Year to date cooling degree days 397 472  
Since 1 June cooling degree days 336 449  
Growing Degree Days 22 (Base 50)    
Moisture  
Dew Point 66 °F    
Average Humidity 84    
Maximum Humidity 100    
Minimum Humidity 67    
Precipitation  
Precipitation 0.01 in 0.08 in 3.23 in (1983)
Month to date precipitation 2.04 2.26  
Year to date precipitation 20.82 16.56  
Sea Level Pressure  
Sea Level Pressure 29.75 in    
Wind  
Wind Speed 6 mph (North)    
Max Wind Speed 21 mph    
Max Gust Speed 28 mph    
T = Trace of Precipitation, MM = Missing Value Source: NWS Daily Summary

Daily Weather History Graph

Daily Weather History Graph

Search for Another Location

Airport or City:

Astronomy

Aug. 29, 2014 Rise Set
Actual Time 6:45 AM CDT 8:11 PM CDT
Civil Twilight 6:14 AM CDT 8:42 PM CDT
Nautical Twilight 5:37 AM CDT 9:19 PM CDT
Astronomical Twilight 4:56 AM CDT 9:59 PM CDT
Moon 10:49 AM CDT (8/29) 9:54 PM CDT (8/29)
Length of Visible Light 14h 27m
Length of Day
13h 25m
Waxing Crescent, 15% of the Moon is Illuminated
Aug 29
Waxing Crescent
Sep 2
First Quarter
Sep 8
Full
Sep 15
Last Quarter
Sep 24
New

Hourly Weather History & Observations

Time (CDT) Temp. Dew Point Humidity Pressure Visibility Wind Dir Wind Speed Gust Speed Precip Events Conditions
12:56 AM 64.9 °F 64.9 °F 100% 29.79 in - Calm Calm - N/A   Unknown
1:56 AM 64.9 °F 64.9 °F 100% 29.78 in - NNW 3.5 mph - N/A   Unknown
2:56 AM 64.9 °F 64.9 °F 100% 29.75 in - Calm Calm - N/A   Unknown
3:56 AM 64.9 °F 64.9 °F 100% 29.75 in - Calm Calm - N/A   Unknown
4:56 AM 64.9 °F 64.9 °F 100% 29.73 in - North 3.5 mph - N/A   Unknown
5:56 AM 66.0 °F 66.0 °F 100% 29.74 in - Calm Calm - N/A   Unknown
6:56 AM 64.9 °F 64.9 °F 100% 29.74 in - North 4.6 mph - N/A   Unknown
7:56 AM 66.0 °F 66.0 °F 100% 29.75 in - Calm Calm - 0.01 in   Unknown
8:56 AM 66.0 °F 66.0 °F 100% 29.74 in - Calm Calm - N/A   Unknown
9:56 AM 68.0 °F 66.9 °F 96% 29.75 in - NNW 4.6 mph - N/A   Unknown
10:56 AM 68.0 °F 66.9 °F 96% 29.75 in - NNW 6.9 mph - N/A   Unknown
11:56 AM 70.0 °F 66.9 °F 90% 29.74 in - Calm Calm - N/A   Unknown
12:56 PM 73.0 °F 66.9 °F 81% 29.74 in - WSW 3.5 mph - N/A   Unknown
1:56 PM 77.0 °F 68.0 °F 74% 29.72 in - Calm Calm - N/A   Unknown
2:56 PM 79.0 °F 69.1 °F 72% 29.70 in - NE 5.8 mph - N/A   Unknown
3:56 PM 78.1 °F 69.1 °F 74% 29.70 in - North 8.1 mph - N/A   Unknown
4:56 PM 78.1 °F 66.0 °F 66% 29.71 in - NNE 10.4 mph - N/A   Unknown
5:56 PM 77.0 °F 66.0 °F 69% 29.71 in - North 10.4 mph - N/A   Unknown
6:56 PM 75.9 °F 66.9 °F 74% 29.72 in - North 5.8 mph - N/A   Unknown
7:56 PM 73.0 °F 68.0 °F 84% 29.74 in - NNW 4.6 mph - N/A   Unknown
8:56 PM 69.1 °F 66.0 °F 90% 29.77 in - NNW 9.2 mph - N/A   Unknown
9:56 PM 66.0 °F 64.0 °F 93% 29.79 in - North 18.4 mph 27.6 mph N/A   Unknown
10:56 PM 64.0 °F 62.1 °F 93% 29.82 in - NNW 13.8 mph - N/A   Unknown
11:56 PM 63.0 °F 60.1 °F 90% 29.83 in - North 13.8 mph - N/A   Unknown